Regional Weather Roundup
Issued by NWS Bismarck, ND

Home | Current Version | Previous Version | Text Only | Print | Product List | Glossary On
Versions: 1 2 3 4 5 6 7 8 9 10 11 12 13 14 15 16 17 18 19 20 21 22 23 24 25 26 27 28 29 30 31 32 33 34 35 36 37 38 39 40 41 42 43 44 45 46 47 48 49 50
054
ASUS43 KBIS 281302
RWRBIS

NWR BROADCAST TEXT
NATIONAL WEATHER SERVICE BISMARCK ND
800 AM CDT THU JUL 28 2016

NOTE: "FAIR" INDICATES FEW OR NO CLOUDS BELOW 12,000 FEET WITH NO
SIGNIFICANT WEATHER AND/OR OBSTRUCTIONS TO VISIBILITY.


CITY           SKY/WX    TMP DP  RH WIND       PRES   REMARKS
WILLISTON      SUNNY     63  59  87 NE6       30.17R
MINOT          CLOUDY    64  57  78 NE3       30.16S
MINOT AFB      CLOUDY    60  56  88 SE5       30.16R
BISMARCK       CLOUDY    63  58  83 E6        30.15S
DICKINSON      HVY RAIN  59  58  96 E10       30.14S FOG
GARRISON         N/A     62  59  90 E7        30.16R
HETTINGER ARPT CLOUDY    62  59  90 CALM      30.15R
JAMESTOWN      MOSUNNY   58  56  93 N6        30.12S
CARRINGTON     FAIR      59  55  88 N6G12     30.16F
HAZEN          CLOUDY    61  59  94 N3        30.18S
OAKES            N/A    N/A N/A N/A MISG        N/A
STANLEY        FAIR      59  59 100 VRB5      30.20S
$$

CITY           SKY/WX    TMP DP  RH WIND       PRES   REMARKS
GRAND FORKS    MOSUNNY   62  57  83 N9        30.12R
GRAND FORKS AF MOSUNNY   61  56  84 N9        30.13S
DEVILS LAKE    CLOUDY    58  55  90 NE5       30.17R
FARGO          CLOUDY    65  61  87 N5        30.08S
CAVALIER       FAIR      57  54  88 N8        30.16S
GRAFTON        FAIR      59  55  88 N7        30.16S
GWINNER        FAIR      61  59  94 N7        30.10F
LANGDON        FAIR      55  54  94 N7        30.18S
ROLLA          FAIR      57  55  94 N5        30.20S
$$

CITY           SKY/WX    TMP DP  RH WIND       PRES   REMARKS
ABERDEEN       CLOUDY    62  58  86 N8        30.11R
MOBRIDGE       CLOUDY    64  58  80 CALM      30.12R
BUFFALO          N/A     62  61  96 NE5       30.08R
RAPID CITY     MOSUNNY   62  59  90 NE7       30.12R
GLASGOW        SUNNY     59  56  89 E8        30.16F
SIDNEY         CLOUDY    64  60  87 NE5       30.16S
WOLF POINT     CLOUDY    63  60  90 NE6       30.17F
GLENDIVE       CLOUDY    62  61  96 NE13      30.15R
MILES CITY     MOSUNNY   61  57  87 NW6       30.14S
BAKER          PTSUNNY   60  59  96 CALM      30.14S
$$

CITY           SKY/WX    TMP DP  RH WIND       PRES   REMARKS
BILLINGS       CLOUDY    61  57  87 W6        30.19R
GREAT FALLS    PTCLDY    57  52  83 S6        30.21R
$$





USA.gov is the U.S. government's official web portal to all federal, state and local government web resources and services.